When you browse on this site, cookies collect data to enhance your experience and personalize the content and advertising you see.
Visit our Privacy Policy to learn more. By continuing to use the site, you agree to this use of cookies and data.
  • In Belgien
  • Länderverzeichnis
  • Für 7 Tage
  • Wassertemperatur
  • Satellitenkarten
  • Wetterkarte
  • Widgets
  • user-avatar
    Anmelden

    Stündliche Wetter Sarajevo

    Heute, 18 Juni, Dienstag

    Zeit Temperatur Niederschläge Wind Luftdruck Luftfeuchtigkeit
    00:00 +15°C° 0 mm 1 m/S 688 mmHg 92%
    01:00 +15°C° 0 mm 1 m/S 688 mmHg 92%
    02:00 +15°C° 0.1 mm 1 m/S 688 mmHg 92%
    03:00 +15°C° 0.1 mm 1 m/S 688 mmHg 93%
    04:00 +15°C° 0.1 mm 1 m/S 688 mmHg 93%
    05:00 +16°C° 0 mm 1 m/S 688 mmHg 91%
    06:00 +18°C° 0 mm 1 m/S 689 mmHg 90%
    07:00 +20°C° 0 mm 1 m/S 689 mmHg 88%
    08:00 +21°C° 0.6 mm 1 m/S 689 mmHg 84%
    09:00 +22°C° 0.6 mm 1 m/S 690 mmHg 79%
    10:00 +24°C° 0.6 mm 1 m/S 690 mmHg 75%
    11:00 +24°C° 0.7 mm 1 m/S 690 mmHg 69%
    12:00 +25°C° 0.7 mm 1 m/S 690 mmHg 63%
    13:00 +26°C° 0.7 mm 1 m/S 690 mmHg 58%
    14:00 +25°C° 0.8 mm 1 m/S 690 mmHg 62%
    15:00 +25°C° 0.8 mm 1 m/S 689 mmHg 65%
    16:00 +24°C° 0.8 mm 1 m/S 689 mmHg 69%
    17:00 +23°C° 0.5 mm 1 m/S 689 mmHg 75%
    18:00 +19°C° 0.5 mm 0 m/S 688 mmHg 81%
    19:00 +18°C° 0.5 mm 0 m/S 688 mmHg 87%
    20:00 +17°C° 0 mm 0 m/S 688 mmHg 87%
    21:00 +16°C° 0 mm 0 m/S 688 mmHg 88%
    22:00 +16°C° 0 mm 1 m/S 688 mmHg 88%
    23:00 +16°C° 0 mm 1 m/S 688 mmHg 88%

    Morgen, 19 Juni, Mittwoch

    Zeit Temperatur Niederschläge Wind Luftdruck Luftfeuchtigkeit
    00:00 +15°C° 0 mm 1 m/S 688 mmHg 88%
    01:00 +15°C° 0 mm 1 m/S 688 mmHg 88%
    02:00 +15°C° 0 mm 1 m/S 688 mmHg 87%
    03:00 +15°C° 0 mm 1 m/S 687 mmHg 87%
    04:00 +14°C° 0 mm 1 m/S 687 mmHg 87%
    05:00 +15°C° 0 mm 0 m/S 687 mmHg 85%
    06:00 +17°C° 0 mm 0 m/S 688 mmHg 83%
    07:00 +19°C° 0 mm 0 m/S 688 mmHg 80%
    08:00 +21°C° 0 mm 0 m/S 689 mmHg 72%
    09:00 +23°C° 0 mm 0 m/S 689 mmHg 64%
    10:00 +25°C° 0 mm 0 m/S 689 mmHg 55%
    11:00 +27°C° 0 mm 1 m/S 689 mmHg 54%
    12:00 +27°C° 0 mm 1 m/S 689 mmHg 54%
    13:00 +27°C° 0 mm 2 m/S 689 mmHg 53%
    14:00 +26°C° 0.4 mm 2 m/S 688 mmHg 59%
    15:00 +26°C° 0.4 mm 2 m/S 688 mmHg 65%
    16:00 +25°C° 0.4 mm 2 m/S 688 mmHg 71%
    17:00 +23°C° 0.3 mm 1 m/S 687 mmHg 75%
    18:00 +22°C° 0.3 mm 1 m/S 687 mmHg 80%
    19:00 +18°C° 0.3 mm 0 m/S 687 mmHg 84%
    20:00 +17°C° 0 mm 0 m/S 687 mmHg 85%
    21:00 +18°C° 0 mm 1 m/S 687 mmHg 86%
    22:00 +16°C° 0 mm 1 m/S 687 mmHg 87%
    23:00 +16°C° 0 mm 1 m/S 687 mmHg 86%

    übermorgen, 20 Juni, Donnerstag

    Zeit Temperatur Niederschläge Wind Luftdruck Luftfeuchtigkeit
    00:00 +15°C° 0 mm 0 m/S 687 mmHg 86%
    01:00 +15°C° 0 mm 0 m/S 686 mmHg 85%
    02:00 +14°C° 0 mm 0 m/S 686 mmHg 85%
    03:00 +15°C° 0 mm 1 m/S 686 mmHg 85%
    04:00 +15°C° 0 mm 1 m/S 686 mmHg 85%
    05:00 +16°C° 0 mm 0 m/S 687 mmHg 82%
    06:00 +18°C° 0 mm 0 m/S 687 mmHg 79%
    07:00 +20°C° 0 mm 0 m/S 688 mmHg 76%
    08:00 +22°C° 0.1 mm 0 m/S 688 mmHg 70%
    09:00 +25°C° 0.1 mm 1 m/S 688 mmHg 65%
    10:00 +27°C° 0.1 mm 1 m/S 689 mmHg 59%
    11:00 +27°C° 0.4 mm 1 m/S 688 mmHg 62%
    12:00 +26°C° 0.4 mm 1 m/S 688 mmHg 66%
    13:00 +26°C° 0.4 mm 2 m/S 688 mmHg 69%
    14:00 +26°C° 0.6 mm 1 m/S 688 mmHg 69%
    15:00 +26°C° 0.6 mm 1 m/S 688 mmHg 70%
    16:00 +26°C° 0.6 mm 1 m/S 688 mmHg 70%
    17:00 +24°C° 0.2 mm 1 m/S 688 mmHg 75%
    18:00 +20°C° 0.2 mm 0 m/S 687 mmHg 81%
    19:00 +19°C° 0.2 mm 0 m/S 687 mmHg 87%
    20:00 +18°C° 0.1 mm 0 m/S 687 mmHg 88%
    21:00 +17°C° 0.1 mm 0 m/S 687 mmHg 89%
    22:00 +16°C° 0.1 mm 0 m/S 687 mmHg 90%
    23:00 +16°C° 0 mm 0 m/S 687 mmHg 90%

    21 Juni, Freitag

    Zeit Temperatur Niederschläge Wind Luftdruck Luftfeuchtigkeit
    00:00 +16°C° 0 mm 0 m/S 687 mmHg 90%
    01:00 +15°C° 0 mm 0 m/S 687 mmHg 90%
    02:00 +15°C° 0 mm 0 m/S 687 mmHg 90%
    03:00 +15°C° 0 mm 0 m/S 687 mmHg 90%
    04:00 +15°C° 0 mm 0 m/S 687 mmHg 90%
    05:00 +17°C° 0 mm 0 m/S 688 mmHg 87%
    06:00 +18°C° 0 mm 0 m/S 688 mmHg 84%
    07:00 +20°C° 0 mm 0 m/S 689 mmHg 81%
    08:00 +22°C° 0 mm 0 m/S 689 mmHg 71%
    09:00 +26°C° 0 mm 1 m/S 690 mmHg 61%
    10:00 +28°C° 0 mm 1 m/S 690 mmHg 50%
    11:00 +28°C° 0 mm 1 m/S 690 mmHg 49%
    12:00 +28°C° 0 mm 2 m/S 690 mmHg 47%
    13:00 +28°C° 0 mm 3 m/S 690 mmHg 46%
    14:00 +28°C° 0 mm 2 m/S 690 mmHg 49%
    15:00 +28°C° 0 mm 2 m/S 689 mmHg 51%
    16:00 +27°C° 0 mm 2 m/S 689 mmHg 54%
    17:00 +25°C° 0 mm 2 m/S 689 mmHg 62%
    18:00 +23°C° 0 mm 1 m/S 688 mmHg 70%
    19:00 +22°C° 0 mm 1 m/S 688 mmHg 78%
    20:00 +21°C° 0 mm 1 m/S 688 mmHg 80%
    21:00 +19°C° 0 mm 1 m/S 688 mmHg 82%
    22:00 +18°C° 0 mm 1 m/S 689 mmHg 84%
    23:00 +18°C° 0 mm 1 m/S 688 mmHg 83%

    22 Juni, Samstag

    Zeit Temperatur Niederschläge Wind Luftdruck Luftfeuchtigkeit
    00:00 +18°C° 0 mm 1 m/S 688 mmHg 83%
    01:00 +18°C° 0 mm 1 m/S 688 mmHg 82%
    02:00 +16°C° 0 mm 1 m/S 688 mmHg 81%
    03:00 +16°C° 0 mm 1 m/S 688 mmHg 80%
    04:00 +16°C° 0 mm 1 m/S 688 mmHg 78%
    05:00 +19°C° 0 mm 1 m/S 689 mmHg 74%
    06:00 +19°C° 0 mm 0 m/S 689 mmHg 70%
    07:00 +21°C° 0 mm 0 m/S 690 mmHg 66%
    08:00 +23°C° 0 mm 0 m/S 690 mmHg 59%
    09:00 +25°C° 0 mm 0 m/S 691 mmHg 53%
    10:00 +28°C° 0 mm 1 m/S 691 mmHg 47%
    11:00 +29°C° 0 mm 1 m/S 691 mmHg 47%
    12:00 +29°C° 0 mm 1 m/S 691 mmHg 47%
    13:00 +29°C° 0 mm 2 m/S 691 mmHg 47%
    14:00 +29°C° 0 mm 2 m/S 690 mmHg 49%
    15:00 +28°C° 0 mm 2 m/S 690 mmHg 52%
    16:00 +28°C° 0 mm 2 m/S 690 mmHg 55%
    17:00 +26°C° 0 mm 2 m/S 690 mmHg 62%
    18:00 +24°C° 0 mm 1 m/S 689 mmHg 70%
    19:00 +22°C° 0 mm 1 m/S 689 mmHg 77%
    20:00 +21°C° 0 mm 1 m/S 689 mmHg 79%
    21:00 +21°C° 0 mm 1 m/S 689 mmHg 80%
    22:00 +20°C° 0 mm 1 m/S 689 mmHg 82%
    23:00 +19°C° 0 mm 1 m/S 689 mmHg 83%

    23 Juni, Sonntag

    Zeit Temperatur Niederschläge Wind Luftdruck Luftfeuchtigkeit
    00:00 +19°C° 0 mm 1 m/S 689 mmHg 83%
    01:00 +19°C° 0 mm 1 m/S 689 mmHg 84%
    02:00 +19°C° 0 mm 1 m/S 689 mmHg 82%
    03:00 +19°C° 0 mm 1 m/S 689 mmHg 80%
    04:00 +18°C° 0 mm 1 m/S 689 mmHg 79%
    05:00 +20°C° 0 mm 1 m/S 689 mmHg 74%
    06:00 +22°C° 0 mm 1 m/S 690 mmHg 69%
    07:00 +22°C° 0 mm 0 m/S 691 mmHg 64%
    08:00 +26°C° 0 mm 1 m/S 691 mmHg 60%
    09:00 +27°C° 0 mm 1 m/S 691 mmHg 56%
    10:00 +28°C° 0 mm 1 m/S 692 mmHg 52%
    11:00 +28°C° 0 mm 1 m/S 692 mmHg 50%
    12:00 +29°C° 0 mm 2 m/S 692 mmHg 49%
    13:00 +29°C° 0 mm 2 m/S 692 mmHg 48%
    14:00 +29°C° 0 mm 2 m/S 692 mmHg 50%
    15:00 +29°C° 0 mm 2 m/S 692 mmHg 51%
    16:00 +29°C° 0 mm 2 m/S 692 mmHg 53%
    17:00 +27°C° 0 mm 1 m/S 691 mmHg 62%
    18:00 +25°C° 0 mm 1 m/S 691 mmHg 71%
    19:00 +21°C° 0 mm 0 m/S 691 mmHg 80%
    20:00 +22°C° 0 mm 1 m/S 691 mmHg 82%
    21:00 +20°C° 0 mm 1 m/S 691 mmHg 84%
    22:00 +19°C° 0 mm 1 m/S 691 mmHg 86%
    23:00 +19°C° 0 mm 1 m/S 691 mmHg 87%
    Mehr zeigen